Location: Unspecified
(0.0000°N, 0.0000°E)
Time: 07:52:18
(UTC+00:00)

Hubble Space Telescope - Pass Details

Date: 14 October 2017
Orbit: 537 x 541 km, 28.5° (Epoch: 23 October)

Event Time Altitude Azimuth Distance (km) Brightness Sun altitude
Rises 18:55:59 0° 254° (WSW) 2,671 6.0 -17.3°
Reaches altitude 10° 18:58:22 10° 262° (W) 1,779 4.7 -17.9°
Maximum altitude 19:02:10 36° 330° (NNW) 847 1.9 -18.9°
Enters shadow 19:03:51 25° 17° (NNE) 1,093 2.1 -19.3°
